User: anonymous   Login
Location: Pine Mountain Observatory
(43.7910°N, 120.9377°W)
Time: 20:21:53
(UTC-08:00)
Language:

Cosmos 1076 Rocket - Orbit

View from above orbital plane
View from above orbital plane
View from above satellite
View from above satellite

Ground track
Ground track

The orbit data is extracted from the following two-line orbital elements,

1 11267U 79011B   15064.64265097  .00000652  00000-0  67326-4 0  9991
2 11267 082.5252 297.1976 0018311 121.6533 238.6474 14.88465153951306
Epoch (UTC): 05 March 2015 15:25:25
Eccentricity: 0.0018311
inclination: 82.5252°
perigee height: 590 km
apogee height: 615 km
right ascension of ascending node: 297.1976°
argument of perigee: 121.6533°
revolutions per day: 14.88465153
mean anomaly at epoch: 238.6474°
orbit number at epoch: 95130

The dashed part of the orbit path shows where the satellite is in the earth's shadow,  

DLR